Regional Weather Roundup
Issued by NWS

Home | Current Version | Previous Version | Graphics & Text | Print | Product List | Glossary On
Versions: 1 2 3 4 5 6 7 8 9 10 11 12 13 14 15 16 17 18 19 20 21 22 23 24 25 26 27 28 29 30 31 32 33 34 35 36 37 38 39 40 41 42 43 44 45 46 47 48 49 50
000
ASUS45 KBOI 220010
RWRID
WEATHER ROUNDUP FOR IDAHO
NATIONAL WEATHER SERVICE BOISE ID
600 PM MDT THU AUG 21 2014

NOTE: "FAIR" INDICATES FEW OR NO CLOUDS BELOW 12000 FEET
WITH NO SIGNIFICANT WEATHER AND/OR OBSTRUCTIONS TO VISIBILITY

IDZ012-014-220100-
SOUTHWEST IDAHO


CITY           SKY/WX    TMP DP  RH WIND       PRES   REMARKS
BOISE          PTSUNNY   83  32  16 N8        29.89F
CALDWELL       PTSUNNY   81  39  22 NE9       29.89F
MOUNTAIN HOME  PTSUNNY   84  47  27 N8        29.88F
$$

IDZ016-017-220100-
SOUTHCENTRAL IDAHO


CITY           SKY/WX    TMP DP  RH WIND       PRES   REMARKS
BURLEY         LGT RAIN  70  52  52 S12       29.99S
JEROME         LGT RAIN  68  57  68 S10       30.00R
TWIN FALLS     TSTM      63  53  70 S16G30    30.03R
$$

IDZ019>023-220100-
SOUTHEAST IDAHO


CITY           SKY/WX    TMP DP  RH WIND       PRES   REMARKS
IDAHO FALLS    PTSUNNY   61  46  57 N17G24    30.06R
POCATELLO      PTSUNNY   77  49  37 S9        30.02S
REXBURG        TSTM      58  51  78 W14G24    30.09R
$$

IDZ006-010-011-018-031-032-220100-
CENTRAL IDAHO MOUNTAINS


CITY           SKY/WX    TMP DP  RH WIND       PRES   REMARKS
MCCALL         PTSUNNY   70  33  25 S9        30.00F
STANLEY          N/A     68  37  32 NW5       30.07F
SALMON         PTSUNNY   72  48  43 CALM      29.93S
CHALLIS        PTSUNNY   72  46  39 SE9       29.98F
$$

IDZ002-004-006-007-026-220100-
NORTHERN IDAHO


CITY           SKY/WX    TMP DP  RH WIND       PRES   REMARKS
LEWISTON       MOSUNNY   87  43  21 NW9       29.84F
LOWELL           N/A     83  53  35 CALM      29.81F
COEUR D`ALENE  PTSUNNY   79  54  41 NE9       29.90F
MULLAN PASS    PTSUNNY   54  47  77 VRB7      30.08F
$$


USA.gov is the U.S. government's official web portal to all federal, state and local government web resources and services.